| time (UTC) | temp F | wind direction | speed knots | gust knots | rain 1hr in | rain 24hr in | rain mn in | humidity % | barometer mb |
| 20260504172504 | 67 | 122 | 0.9 | 3.5 | 0.00 | 0.00 | 0.00 | 68 | 1004.0 |
| 20260504170504 | 67 | 184 | 0.0 | 2.6 | 0.00 | 0.00 | 0.00 | 70 | 1004.7 |
| 20260504080959 | 60 | 82 | 0.0 | 0.0 | 0.00 | 0.00 | 0.00 | 74 | 1006.6 |
| 20260504045959 | 61 | 181 | 0.0 | 1.7 | 0.00 | 0.00 | 0.00 | 66 | 1006.2 |
| 20260504045500 | 61 | 167 | 0.0 | 1.7 | 0.00 | 0.00 | 0.00 | 66 | 1006.2 |
| 20260504045000 | 61 | 175 | 0.0 | 1.7 | 0.00 | 0.00 | 0.00 | 66 | 1006.4 |
| 20260504044503 | 61 | 168 | 0.0 | 1.7 | 0.00 | 0.00 | 0.00 | 65 | 1006.6 |
| 20260504042459 | 62 | 210 | 0.0 | 3.5 | 0.00 | 0.00 | 0.00 | 66 | 1007.1 |
| 20260504041959 | 62 | 238 | 0.0 | 4.3 | 0.00 | 0.00 | 0.00 | 65 | 1007.3 |
| 20260504041500 | 62 | 197 | 0.9 | 2.6 | 0.00 | 0.00 | 0.00 | 64 | 1007.5 |
| 20260504041000 | 62 | 194 | 0.9 | 2.6 | 0.00 | 0.00 | 0.00 | 65 | 1007.5 |
| 20260504033958 | 61 | 180 | 0.0 | 1.7 | 0.00 | 0.00 | 0.00 | 64 | 1007.6 |
| 20260504031001 | 63 | 232 | 0.0 | 0.9 | 0.00 | 0.00 | 0.00 | 61 | 1007.6 |
| 20260504030002 | 63 | 196 | 0.0 | 4.3 | 0.00 | 0.00 | 0.00 | 61 | 1007.7 |
| 20260504025502 | 63 | 217 | 0.0 | 4.3 | 0.00 | 0.00 | 0.00 | 60 | 1007.7 |
| 20260504024000 | 64 | 149 | 0.9 | 4.3 | 0.00 | 0.00 | 0.00 | 59 | 1007.7 |
| 20260504023500 | 64 | 327 | 0.9 | 4.3 | 0.00 | 0.00 | 0.00 | 59 | 1007.7 |
| 20260504022504 | 65 | 223 | 0.9 | 2.6 | 0.00 | 0.00 | 0.00 | 57 | 1007.7 |
| 20260504021500 | 65 | 182 | 0.9 | 1.7 | 0.00 | 0.00 | 0.00 | 56 | 1007.6 |
| 20260504021000 | 65 | 278 | 0.0 | 2.6 | 0.00 | 0.00 | 0.00 | 56 | 1007.6 |
| 20260504020503 | 65 | 205 | 0.9 | 2.6 | 0.00 | 0.00 | 0.00 | 56 | 1007.5 |
| 20260504014958 | 66 | 165 | 0.9 | 1.7 | 0.00 | 0.00 | 0.00 | 55 | 1007.3 |
| 20260504014000 | 66 | 147 | 0.0 | 3.5 | 0.00 | 0.00 | 0.00 | 55 | 1007.3 |
| 20260504012959 | 67 | 224 | 0.0 | 1.7 | 0.00 | 0.00 | 0.00 | 54 | 1007.2 |
| 20260504012500 | 67 | 170 | 0.9 | 1.7 | 0.00 | 0.00 | 0.00 | 53 | 1007.2 |
| 20260504012000 | 67 | 269 | 0.0 | 0.9 | 0.00 | 0.00 | 0.00 | 53 | 1007.2 |
| 20260504011458 | 68 | 180 | 0.0 | 2.6 | 0.00 | 0.00 | 0.00 | 53 | 1007.2 |
| 20260504010502 | 68 | 175 | 0.9 | 1.7 | 0.00 | 0.00 | 0.00 | 51 | 1007.1 |
| 20260504004459 | 70 | 182 | 0.0 | 1.7 | 0.00 | 0.00 | 0.00 | 49 | 1007.2 |
| 20260504003959 | 70 | 188 | 0.0 | 0.9 | 0.00 | 0.00 | 0.00 | 49 | 1007.2 |
| 20260504003459 | 71 | 179 | 0.0 | 1.7 | 0.00 | 0.00 | 0.00 | 49 | 1007.2 |
| 20260504003000 | 71 | 188 | 0.0 | 2.6 | 0.00 | 0.00 | 0.00 | 48 | 1007.1 |
| 20260504002459 | 71 | 302 | 0.0 | 2.6 | 0.00 | 0.00 | 0.00 | 48 | 1007.2 |
| 20260504001959 | 72 | 207 | 0.0 | 2.6 | 0.00 | 0.00 | 0.00 | 47 | 1007.2 |
| 20260503235458 | 74 | 242 | 0.9 | 2.6 | 0.00 | 0.00 | 0.00 | 43 | 1007.4 |
| 20260503234500 | 74 | 277 | 0.9 | 6.1 | 0.00 | 0.00 | 0.00 | 42 | 1007.4 |
| 20260503234000 | 75 | 218 | 1.7 | 6.1 | 0.00 | 0.00 | 0.00 | 41 | 1007.4 |
| 20260503232459 | 76 | 236 | 1.7 | 7.0 | 0.00 | 0.00 | 0.00 | 40 | 1007.3 |
| 20260503230459 | 76 | 190 | 1.7 | 7.8 | 0.00 | 0.00 | 0.00 | 38 | 1007.7 |
| 20260503225500 | 76 | 309 | 1.7 | 8.7 | 0.00 | 0.00 | 0.00 | 39 | 1007.7 |
| 20260503223959 | 76 | 210 | 2.6 | 10.4 | 0.00 | 0.00 | 0.00 | 39 | 1007.8 |
| 20260503223000 | 76 | 181 | 0.9 | 13.0 | 0.00 | 0.00 | 0.00 | 39 | 1007.8 |
| 20260503222500 | 76 | 71 | 4.3 | 13.0 | 0.00 | 0.00 | 0.00 | 38 | 1007.9 |
| 20260503220002 | 76 | 110 | 2.6 | 10.4 | 0.00 | 0.00 | 0.00 | 38 | 1008.0 |
| 20260503215001 | 76 | 360 | 1.7 | 10.4 | 0.00 | 0.00 | 0.00 | 40 | 1008.1 |
| 20260503214502 | 76 | 225 | 2.6 | 8.7 | 0.00 | 0.00 | 0.00 | 41 | 1008.1 |
| 20260503213504 | 76 | 238 | 0.9 | 8.7 | 0.00 | 0.00 | 0.00 | 41 | 1008.1 |
| 20260503212504 | 75 | 188 | 2.6 | 11.3 | 0.00 | 0.00 | 0.00 | 39 | 1008.3 |
| 20260503212004 | 75 | 323 | 2.6 | 10.4 | 0.00 | 0.00 | 0.00 | 40 | 1008.5 |
| 20260503210003 | 75 | 150 | 2.6 | 18.2 | 0.00 | 0.00 | 0.00 | 40 | 1008.8 |
| 20260503204500 | 74 | 107 | 2.6 | 11.3 | 0.00 | 0.00 | 0.00 | 41 | 1009.1 |
| 20260503203005 | 74 | 134 | 2.6 | 13.9 | 0.00 | 0.00 | 0.00 | 38 | 1009.4 |
| 20260503202459 | 75 | 144 | 1.7 | 10.4 | 0.00 | 0.00 | 0.00 | 40 | 1009.7 |
| 20260503201459 | 75 | 169 | 1.7 | 7.8 | 0.00 | 0.00 | 0.00 | 39 | 1009.7 |
| 20260503201000 | 75 | 82 | 1.7 | 9.6 | 0.00 | 0.00 | 0.00 | 39 | 1009.7 |
| 20260503200501 | 75 | 190 | 2.6 | 9.6 | 0.00 | 0.00 | 0.00 | 41 | 1010.0 |
| 20260503200000 | 74 | 268 | 1.7 | 10.4 | 0.00 | 0.00 | 0.00 | 39 | 1010.3 |
| 20260503194000 | 73 | 123 | 1.7 | 6.1 | 0.00 | 0.00 | 0.00 | 39 | 1011.0 |
| 20260503193000 | 73 | 52 | 2.6 | 10.4 | 0.00 | 0.00 | 0.00 | 39 | 1011.3 |
| 20260503192459 | 73 | 252 | 3.5 | 10.4 | 0.00 | 0.00 | 0.00 | 39 | 1011.4 |
| 20260503192000 | 73 | 240 | 2.6 | 9.6 | 0.00 | 0.00 | 0.00 | 41 | 1011.5 |
| 20260503191500 | 73 | 86 | 1.7 | 7.0 | 0.00 | 0.00 | 0.00 | 41 | 1011.7 |
| 20260503191001 | 72 | 245 | 1.7 | 8.7 | 0.00 | 0.00 | 0.00 | 39 | 1011.8 |
| 20260503190002 | 72 | 122 | 1.7 | 9.6 | 0.00 | 0.00 | 0.00 | 43 | 1012.2 |
| 20260503184459 | 71 | 110 | 1.7 | 8.7 | 0.00 | 0.00 | 0.00 | 42 | 1012.3 |
| 20260503183459 | 71 | 161 | 3.5 | 10.4 | 0.00 | 0.00 | 0.00 | 43 | 1012.6 |
| 20260503183000 | 71 | 80 | 1.7 | 8.7 | 0.00 | 0.00 | 0.00 | 41 | 1012.8 |
| 20260503182500 | 71 | 208 | 2.6 | 8.7 | 0.00 | 0.00 | 0.00 | 42 | 1012.9 |
| 20260503181959 | 71 | 130 | 2.6 | 7.0 | 0.00 | 0.00 | 0.00 | 42 | 1013.2 |
| 20260503180459 | 70 | 112 | 1.7 | 8.7 | 0.00 | 0.00 | 0.00 | 42 | 1013.8 |
| 20260503175459 | 70 | 190 | 2.6 | 8.7 | 0.00 | 0.00 | 0.00 | 43 | 1014.1 |